DW9051 Weather Reports


time (UTC)temp
C
wind
direction
speed
KPH
gust
KPH
rain 1hr
cm
rain 24hr
cm
rain mn
cm
humidity
%
barometer
mb
20260506221519 12 101 1.6 4.8 0.00 0.00 0.00 87 1021.1
20260506220519 12 117 4.8 6.4 0.00 0.00 0.00 87 1020.6
20260506215519 12 117 4.8 8.0 0.00 0.00 0.00 87 1020.8
20260506214539 12 139 3.2 6.4 0.00 0.00 0.00 87 1020.9
20260506213519 12 134 3.2 4.8 0.00 0.00 0.00 87 1020.8
20260506212519 12 177 6.4 8.0 0.00 0.00 0.00 87 1020.8
20260506211516 12 174 6.4 9.7 0.00 0.00 0.00 88 1020.7
20260506210519 12 176 9.7 12.9 0.00 0.00 0.00 89 1020.6
20260506205520 12 212 8.0 12.9 0.00 0.00 0.00 91 1020.6
20260506204540 12 188 8.0 11.3 0.00 0.00 0.00 92 1020.6
20260506203520 11 152 11.3 14.5 0.00 0.00 0.00 92 1020.3
20260506202517 11 152 12.9 17.7 0.00 0.00 0.00 92 1020.3
20260506201517 11 148 11.3 16.1 0.00 0.00 0.00 93 1020.3
20260506200521 11 144 14.5 17.7 0.00 0.00 0.00 93 1020.2
20260506195520 11 148 12.9 17.7 0.00 0.00 0.00 94 1020.3
20260506194521 11 148 11.3 14.5 0.00 0.00 0.00 94 1020.3
20260506193517 11 145 14.5 19.3 0.00 0.00 0.00 95 1020.1
20260506192518 11 144 19.3 22.5 0.00 0.00 0.00 95 1019.9
20260506191518 11 145 16.1 22.5 0.00 0.00 0.00 96 1020.0
20260506190541 11 144 11.3 16.1 0.00 0.00 0.00 96 1020.1
20260506185521 11 147 12.9 17.7 0.00 0.00 0.00 96 1020.0
20260506184521 11 146 12.9 16.1 0.00 0.00 0.00 96 1019.9
20260506183539 11 144 12.9 17.7 0.00 0.00 0.00 96 1019.8
20260506182519 11 142 19.3 25.7 0.00 0.00 0.00 96 1019.8
20260506181519 11 146 19.3 24.1 0.00 0.00 0.00 96 1019.6
20260506180519 11 145 20.9 25.7 0.00 0.00 0.00 96 1019.6
20260506175519 11 147 20.9 25.7 0.00 0.00 0.00 96 1019.6
20260506174520 11 146 20.9 27.4 0.00 0.00 0.00 96 1019.4
20260506173520 11 145 19.3 24.1 0.00 0.00 0.00 96 1019.6
20260506172517 11 144 20.9 27.4 0.00 0.00 0.00 96 1019.2
20260506171520 11 144 22.5 27.4 0.00 0.00 0.00 97 1019.1
20260506170520 11 144 20.9 25.7 0.00 0.00 0.00 97 1019.2
20260506165540 11 143 19.3 22.5 0.00 0.00 0.00 97 1019.4
20260506164517 11 142 20.9 25.7 0.00 0.00 0.00 97 1019.2
20260506163517 11 142 19.3 24.1 0.00 0.00 0.00 97 1019.2
20260506162517 11 143 16.1 22.5 0.00 0.00 0.00 97 1019.4
20260506161521 11 145 16.1 20.9 0.00 0.00 0.00 97 1019.3
20260506160521 11 143 20.9 24.1 0.00 0.00 0.00 97 1019.1
20260506155518 11 142 22.5 25.7 0.00 0.00 0.00 96 1019.0
20260506154518 11 143 22.5 25.7 0.00 0.00 0.00 96 1018.8
20260506153518 11 143 25.7 32.2 0.00 0.00 0.00 96 1018.6
20260506152538 11 142 27.4 33.8 0.00 0.00 0.00 96 1018.6
20260506151518 11 142 24.1 30.6 0.00 0.00 0.00 96 1018.7
20260506150518 11 142 22.5 29.0 0.00 0.00 0.00 97 1018.8
20260506145519 11 141 20.9 24.1 0.00 0.00 0.00 97 1018.8
20260506144519 11 142 14.5 17.7 0.00 0.00 0.00 96 1019.1
20260506143519 11 141 20.9 25.7 0.00 0.00 0.00 96 1018.6
20260506142519 11 141 20.9 25.7 0.00 0.00 0.00 96 1018.4
20260506141519 11 140 19.3 24.1 0.00 0.00 0.00 96 1018.5
20260506140519 11 140 17.7 20.9 0.00 0.00 0.00 96 1018.5
20260506135519 11 139 11.3 14.5 0.00 0.00 0.00 96 1018.5
20260506134519 11 141 11.3 12.9 0.00 0.00 0.00 96 1018.4
20260506133519 11 152 3.2 6.4 0.00 0.00 0.00 97 1018.4
20260506132519 11 162 1.6 4.8 0.00 0.00 0.00 96 1018.4
20260506131519 11 294 1.6 4.8 0.00 0.00 0.00 96 1018.5
20260506130520 11 167 1.6 4.8 0.00 0.00 0.00 96 1018.3
20260506125520 11 271 0.0 3.2 0.00 0.00 0.00 96 1018.3
20260506124520 11 175 0.0 3.2 0.00 0.00 0.00 96 1018.1
20260506123517 11 155 1.6 4.8 0.00 0.00 0.00 96 1018.1
20260506122520 10 145 4.8 11.3 0.00 0.00 0.00 96 1017.9
20260506121520 10 265 0.0 1.6 0.00 0.00 0.00 96 1018.0
20260506120520 10 165 0.0 3.2 0.00 0.00 0.00 96 1018.0
20260506115520 10 186 0.0 1.6 0.00 0.00 0.00 96 1017.9
20260506114537 10 232 0.0 3.2 0.00 0.00 0.00 96 1017.9
20260506113517 10 235 1.6 4.8 0.00 0.00 0.00 96 1017.8
20260506112520 10 142 4.8 14.5 0.00 0.00 0.00 96 1017.7
20260506111540 10 189 0.0 1.6 0.00 0.00 0.00 96 1017.6
20260506110518 10 178 3.2 6.4 0.00 0.00 0.00 96 1017.5
20260506105538 10 189 1.6 3.2 0.00 0.00 0.00 96 1017.4
20260506104517 10 298 1.6 3.2 0.00 0.00 0.00 96 1017.2
20260506103558 10 313 1.6 3.2 0.00 0.00 0.00 96 1017.1
20260506102542 9 331 3.2 4.8 0.00 0.00 0.00 96 1017.0
20260506101519 9 320 3.2 6.4 0.00 0.00 0.00 96 1016.8
20260506100519 9 323 1.6 3.2 0.00 0.00 0.00 96 1016.6
20260506095518 9 296 0.0 1.6 0.00 0.00 0.00 95 1016.5
20260506094519 9 291 0.0 3.2 0.00 0.00 0.00 95 1016.5
20260506093519 9 322 3.2 8.0 0.00 0.00 0.00 95 1016.6
20260506092539 9 297 1.6 8.0 0.00 0.00 0.00 95 1016.5
20260506091518 9 312 1.6 3.2 0.00 0.00 0.00 95 1016.5
20260506090539 9 314 1.6 3.2 0.00 0.00 0.00 95 1016.5
20260506085519 9 315 1.6 4.8 0.00 0.00 0.00 94 1016.5
20260506084519 10 302 1.6 3.2 0.00 0.00 0.00 94 1016.3
20260506083539 10 298 0.0 3.2 0.00 0.00 0.00 94 1016.2
20260506082519 10 282 0.0 1.6 0.00 0.00 0.00 94 1016.2
20260506081519 10 253 0.0 1.6 0.00 0.00 0.00 94 1016.3
20260506080520 10 250 0.0 3.2 0.00 0.00 0.00 93 1016.1
20260506073517 10 238 0.0 1.6 0.00 0.00 0.00 93 1015.7
20260506072540 10 318 1.6 3.2 0.00 0.00 0.00 92 1015.7
20260506071520 10 283 0.0 1.6 0.00 0.00 0.00 92 1015.6
20260506070540 10 257 0.0 1.6 0.00 0.00 0.00 92 1015.6
20260506061518 11 359 3.2 8.0 0.00 0.00 0.00 90 1015.6
20260506060518 11 4 1.6 4.8 0.00 0.00 0.00 90 1015.5
20260506050519 11 326 1.6 4.8 0.00 0.00 0.00 90 1015.0
20260506044519 11 315 1.6 3.2 0.00 0.00 0.00 89 1014.7
20260506043519 12 314 1.6 4.8 0.00 0.00 0.00 88 1014.7
20260506042519 12 309 1.6 4.8 0.00 0.00 0.00 87 1014.5
20260506041519 12 320 0.0 3.2 0.00 0.00 0.00 87 1014.4
20260506040519 13 346 0.0 3.2 0.00 0.00 0.00 86 1014.4
20260506035519 13 334 0.0 3.2 0.00 0.00 0.00 85 1014.3
20260506034520 13 324 1.6 3.2 0.00 0.00 0.00 85 1014.4
20260506033519 13 320 1.6 3.2 0.00 0.00 0.00 85 1014.4
20260506032520 13 342 3.2 6.4 0.00 0.00 0.00 85 1014.4
20260506031520 13 329 1.6 4.8 0.00 0.00 0.00 85 1014.4
20260506030517 14 327 1.6 4.8 0.00 0.00 0.00 85 1014.5
20260506025520 14 318 1.6 4.8 0.00 0.00 0.00 85 1014.3
20260506024540 15 357 1.6 3.2 0.00 0.00 0.00 85 1014.3
20260506023540 15 301 1.6 3.2 0.00 0.00 0.00 85 1014.3
20260506022537 15 78 1.6 4.8 0.00 0.00 0.00 85 1014.3
20260506021518 15 124 1.6 3.2 0.00 0.00 0.00 84 1014.3
20260506020517 15 119 3.2 4.8 0.00 0.00 0.00 83 1014.4
20260506015521 15 111 4.8 6.4 0.00 0.00 0.00 83 1014.6
20260506014518 15 146 4.8 8.0 0.00 0.00 0.00 83 1014.7
20260506013518 15 156 8.0 11.3 0.00 0.00 0.00 84 1014.7
20260506012518 15 160 8.0 11.3 0.00 0.00 0.00 83 1014.7
20260506011518 15 157 9.7 12.9 0.00 0.00 0.00 82 1014.8
20260506010558 15 158 11.3 16.1 0.00 0.00 0.00 82 1014.8
20260506005518 15 171 11.3 19.3 0.00 0.00 0.00 82 1014.9
20260506004518 15 177 9.7 14.5 0.00 0.00 0.00 83 1015.0
20260506003519 15 178 8.0 12.9 0.00 0.00 0.00 85 1015.0
20260506002519 14 170 8.0 11.3 0.00 0.00 0.00 86 1015.0
20260506001519 14 170 8.0 11.3 0.00 0.00 0.00 87 1015.0
20260506000519 14 168 9.7 12.9 0.00 0.00 0.00 88 1015.2
20260505235519 14 169 9.7 12.9 0.00 0.00 0.00 88 1015.3
20260505234519 13 166 9.7 12.9 0.00 0.00 0.00 89 1015.4
20260505233519 13 162 9.7 12.9 0.00 0.00 0.00 89 1015.6
20260505232520 13 172 8.0 12.9 0.00 0.00 0.00 89 1015.7
20260505231517 13 159 9.7 12.9 0.00 0.00 0.00 90 1015.7
20260505230520 13 166 8.0 12.9 0.00 0.00 0.00 90 1015.9
20260505225540 13 158 11.3 16.1 0.00 0.00 0.00 91 1015.9
20260505224520 13 158 11.3 16.1 0.00 0.00 0.00 90 1016.0
20260505223520 13 155 9.7 14.5 0.00 0.00 0.00 90 1016.0
20260505222537 13 152 9.7 14.5 0.00 0.00 0.00 90 1016.2